[[{"header":{"parameterUnit":"m.s-1","parameterCategory":1,"la1":30.2991,"la2":30.254,"lo1":-89.0895,"lo2":-89.0444,"dy":0.0017,"dx":0.0017,"nx":28,"ny":28,"refTime":"2024-02-03T03:00:00:Z","depth":0,"parameterNumber":2,"parameterNumberName":"U-component_of_WINDS"},"data":[0,0,0,0,0,0,0,0,0,0,0,0,0,0,0,0,0,0,0,0,0,0,0,0,0,0,0,0,0,0,0,0,0,0,0,0,0,0,0,0,0,0,0,0,0,0,0,0,0,0,0,0,0,0,0,0,0,0,-3.1661,-3.1661,0,-3.1654,-3.1653,-3.1653,-3.1524,-3.1521,-3.1518,-3.1514,-3.1508,-3.1511,-3.1514,0,0,0,0,0,0,0,0,0,0,0,0,0,-3.1564,-3.1566,-3.1661,-3.1661,-3.166,-3.1654,-3.1653,-3.1653,-3.1525,-3.1521,-3.1517,-3.1513,-3.1507,-3.1511,-3.1514,0,0,0,0,0,0,0,0,0,0,0,0,0,-3.1586,-3.1567,-3.1661,-3.1595,-3.1589,-3.1654,-3.1653,-3.1653,-3.1526,-3.1521,-3.1516,-3.1511,-3.1506,-3.151,-3.1515,-3.1641,0,0,-3.1528,-3.153,0,0,0,0,0,0,0,0,-3.1585,-3.159,-3.1605,-3.16,-3.1593,-3.1585,-3.1617,-3.1649,-3.1527,-3.155,-3.1514,-3.1509,-3.1538,-3.1539,-3.1549,-3.1641,-3.1641,-3.1529,-3.1531,-3.1533,-3.1534,0,0,0,0,0,0,0,-3.1584,-3.159,-3.1658,-3.1605,-3.1598,-3.1567,-3.1565,-3.1622,-3.1572,-3.1547,-3.1538,-3.1539,-3.1534,-3.1545,-3.1548,-3.164,-3.1528,-3.1532,-3.1535,-3.1537,-3.1837,-3.1842,0,0,0,0,0,0,-3.1591,-3.1589,-3.1658,-3.1658,-3.1577,-3.1573,-3.157,-3.1593,-3.1571,-3.1563,-3.1543,-3.1533,-3.154,-3.1543,-3.1547,-3.1695,-3.1533,-3.1537,-3.154,-3.1832,-3.1838,-3.1844,0,0,0,0,0,0,-3.159,-3.1598,-3.1658,-3.1621,-3.1626,-3.158,-3.1606,-3.1595,-3.1606,-3.1567,-3.1558,-3.1564,-3.1536,-3.1541,-3.1619,-3.1693,-3.1539,-3.1543,-3.1825,-3.1833,-3.1841,-3.199,0,0,0,0,0,0,-3.1587,-3.1599,-3.1646,-3.1623,-3.1628,-3.1731,-3.161,-3.1598,-3.1614,-3.16,-3.1585,-3.1577,-3.1533,-3.1613,-3.1623,-3.1696,-3.1547,-3.1818,-3.1829,-3.1838,-3.1979,-3.2003,-3.2023,0,0,0,0,0,-3.1584,-3.1688,-3.1649,-3.1658,-3.1687,-3.1735,-3.1738,-3.1684,-3.162,-3.1668,-3.1643,-3.1578,-3.1683,-3.1622,-3.1632,-3.1708,-3.1814,-3.1826,-3.1838,-3.1969,-3.1998,-3.2022,0,0,0,0,0,0,-3.1722,-3.1684,-3.164,-3.174,-3.1742,-3.1713,-3.1771,-3.1717,-3.1737,-3.1724,-3.1656,-3.1654,-3.1743,-3.1732,-3.1666,-3.1829,-3.1737,-3.1751,-3.1833,-3.186,-3.1882,-3.1883,-3.155,0,0,0,0,0,-3.1763,-3.1805,-3.177,-3.1862,-3.1865,-3.1818,-3.1837,-3.1796,-3.1795,-3.1795,-3.1776,-3.1778,-3.1811,-3.1835,-3.1863,-3.1976,-3.1971,-3.2033,-3.2055,-3.2073,-3.2087,-3.2147,-3.2175,-3.1883,-3.1883,-3.1883,0,0,-3.185,-3.1835,-3.1866,-3.1889,-3.1885,-3.1931,-3.182,-3.1872,-3.1906,-3.1803,-3.1876,-3.1862,-3.186,-3.1957,-3.1998,-3.1951,-3.2167,-3.2089,-3.2104,-3.2108,-3.2163,-3.219,-3.2215,-3.1891,-3.189,-3.1889,0,0,-3.2033,-3.2025,-3.2101,-3.2099,-3.2095,-3.2064,-3.2082,-3.2062,-3.2049,-3.2121,-3.2045,-3.2084,-3.2142,-3.2144,-3.2153,-3.2337,-3.2278,-3.2348,-3.2464,-3.2523,-3.2546,-3.2566,-3.2633,-3.2658,-3.2361,-3.2362,-3.2362,0,-3.2141,-3.2207,-3.2146,-3.2205,-3.2218,-3.2126,-3.2203,-3.2205,-3.2211,-3.2222,-3.2169,-3.2241,-3.2233,-3.2329,-3.2374,-3.2384,-3.2403,-3.235,-3.2548,-3.2567,-3.2585,-3.2648,-3.2673,-3.237,-3.2369,-3.2368,-3.2368,0,-3.2342,-3.2388,-3.245,-3.2458,-3.2478,-3.2545,-3.2495,-3.2523,-3.2479,-3.2454,-3.2529,-3.2516,-3.2541,-3.256,-3.2518,-3.2651,-3.2622,-3.2559,-3.2465,-3.2623,-3.2681,-3.2704,-3.2383,-3.238,-3.2377,-3.2375,0,0,-3.2611,-3.2585,-3.2609,-3.2612,-3.2601,-3.2636,-3.2699,-3.2723,-3.2749,-3.2756,-3.2808,-3.286,-3.2802,-3.2812,-3.277,-3.2822,-3.297,-3.2752,-3.2751,-3.2795,-3.3117,-3.3165,-3.3194,-3.293,-3.2934,-3.2938,-3.3117,0,-3.2788,-3.2895,-3.2843,-3.2956,-3.2999,-3.2913,-3.2968,-3.2968,-3.2946,-3.2979,-3.2954,-3.2993,-3.2912,-3.2918,-3.2966,-3.2942,-3.3034,-3.2928,-3.2979,-3.2982,-3.2984,-3.3224,-3.3275,-3.3446,-3.314,-3.3143,-3.3146,0,-3.3009,-3.3026,-3.3144,-3.3126,-3.3142,-3.3193,-3.3211,-3.3244,-3.3242,-3.3222,-3.3234,-3.3179,-3.3241,-3.3147,-3.3231,-3.316,-3.3178,-3.3169,-3.3175,-3.3179,-3.3075,-3.3237,-3.3499,-3.3525,-3.3181,-3.3178,-3.3176,0,-3.3196,-3.3248,-3.3326,-3.3331,-3.3311,-3.3349,-3.3343,-3.3335,-3.3354,-3.337,-3.3381,-3.3404,-3.3417,-3.3437,-3.339,-3.3325,-3.3482,-3.3383,-3.3468,-3.3469,-3.3506,-3.3505,-3.3776,-3.3515,-3.3515,-3.3514,-3.3514,0,-3.3401,-3.3477,-3.3409,-3.3458,-3.354,-3.3479,-3.3563,-3.3547,-3.3542,-3.3586,-3.3512,-3.3555,-3.349,-3.3526,-3.349,-3.3566,-3.3572,-3.3559,-3.3549,-3.3566,-3.3569,-3.3578,-3.3566,-3.3521,-3.3519,-3.3518,-3.3517,0,-3.3624,-3.3582,-3.3661,-3.3636,-3.3631,-3.3694,-3.3672,-3.3716,-3.3688,-3.3745,-3.3755,-3.3712,-3.3751,-3.3706,-3.3741,-3.3717,-3.3821,-3.3792,-3.3822,-3.3814,-3.3902,-3.3896,-3.4191,-3.4228,-3.3942,-3.3945,-3.3947,0,-3.3758,-3.3815,-3.3796,-3.382,-3.3818,-3.3858,-3.3876,-3.3818,-3.384,-3.3842,-3.3886,-3.3919,-3.3942,-3.4009,-3.3981,-3.4008,-3.3981,-3.4083,-3.3985,-3.4001,-3.3984,-3.3982,-3.3988,-3.4104,-3.4107,-3.411,-3.4112,0,-3.4002,-3.3978,-3.4007,-3.4029,-3.4053,-3.4068,-3.4077,-3.4101,-3.404,-3.4069,-3.4108,-3.4127,-3.4163,-3.4197,-3.4216,-3.421,-3.4152,-3.4143,-3.4164,-3.4184,-3.4199,-3.4194,-3.3878,-3.4137,-3.4134,-3.4132,-3.4131,-3.413,-3.4185,-3.4232,-3.4226,-3.4261,-3.4262,-3.4273,-3.4313,-3.429,-3.4322,-3.4347,-3.431,-3.436,-3.4356,-3.4376,-3.4377,-3.4415,-3.4371,-3.4402,-3.441,-3.4419,-3.4433,-3.4192,-3.4418,-3.4417,-3.4416,-3.4416,-3.4415,0,-3.4426,-3.4418,-3.4451,-3.4466,-3.4494,-3.4436,-3.4443,-3.4471,-3.4515,-3.4517,-3.4541,-3.4587,-3.462,-3.4595,-3.4622,-3.4658,-3.4632,-3.4667,-3.4665,-3.4664,-3.4469,-3.4449,-3.4687,-3.4687,-3.4687,-3.4687,-3.4687,-3.4687,-3.4555,-3.4631,-3.4607,-3.4683,-3.4674,-3.4722,-3.4732,-3.4741,-3.4742,-3.4797,-3.4823,-3.4806,-3.4798,-3.4824,-3.4852,-3.4844,-3.4858,-3.4903,-3.4886,-3.4705,-3.4678,-3.4652,-3.4633,-3.4906,-3.4907,-3.5078,-3.5079,-3.5081]},{"header":{"parameterUnit":"m.s-1","parameterCategory":1,"la1":30.2991,"la2":30.254,"lo1":-89.0895,"lo2":-89.0444,"dy":0.0017,"dx":0.0017,"nx":28,"ny":28,"refTime":"2024-02-03T03:00:00:Z","depth":0,"parameterNumber":3,"parameterNumberName":"V-component_of_WINDS"},"data":[0,0,0,0,0,0,0,0,0,0,0,0,0,0,0,0,0,0,0,0,0,0,0,0,0,0,0,0,0,0,0,0,0,0,0,0,0,0,0,0,0,0,0,0,0,0,0,0,0,0,0,0,0,0,0,0,0,0,-1.6599,-1.6598,0,-1.6576,-1.6575,-1.6575,-1.6531,-1.653,-1.6529,-1.6529,-1.6504,-1.6504,-1.6505,0,0,0,0,0,0,0,0,0,0,0,0,0,-1.6603,-1.6603,-1.6599,-1.6598,-1.6598,-1.6576,-1.6575,-1.6575,-1.6531,-1.653,-1.6529,-1.6528,-1.6504,-1.6504,-1.6505,0,0,0,0,0,0,0,0,0,0,0,0,0,-1.6592,-1.6603,-1.6599,-1.6574,-1.6571,-1.6576,-1.6575,-1.6575,-1.6531,-1.653,-1.6529,-1.6528,-1.6504,-1.6504,-1.6505,-1.6532,0,0,-1.6505,-1.6505,0,0,0,0,0,0,0,0,-1.6593,-1.6592,-1.6578,-1.6575,-1.6573,-1.6555,-1.6568,-1.656,-1.6532,-1.6547,-1.6529,-1.6527,-1.6522,-1.6521,-1.6519,-1.6531,-1.653,-1.6505,-1.6505,-1.6505,-1.6506,0,0,0,0,0,0,0,-1.6594,-1.6593,-1.659,-1.6577,-1.6574,-1.6563,-1.656,-1.6566,-1.6542,-1.6545,-1.6542,-1.654,-1.652,-1.6519,-1.6518,-1.6529,-1.6505,-1.6505,-1.6506,-1.6506,-1.6559,-1.656,0,0,0,0,0,0,-1.6598,-1.6594,-1.659,-1.6589,-1.658,-1.6564,-1.656,-1.6562,-1.6542,-1.6537,-1.6541,-1.6538,-1.6519,-1.6518,-1.6517,-1.6546,-1.6505,-1.6506,-1.6506,-1.6558,-1.6559,-1.6561,0,0,0,0,0,0,-1.6599,-1.6598,-1.6591,-1.659,-1.6589,-1.6565,-1.6567,-1.6562,-1.6561,-1.6538,-1.6534,-1.6544,-1.6518,-1.6517,-1.6528,-1.6545,-1.6506,-1.6506,-1.6556,-1.6558,-1.656,-1.6605,0,0,0,0,0,0,-1.6599,-1.6599,-1.661,-1.6591,-1.6589,-1.6603,-1.6568,-1.6563,-1.6561,-1.6557,-1.654,-1.6536,-1.6517,-1.6528,-1.6528,-1.6544,-1.6506,-1.6555,-1.6557,-1.6559,-1.6602,-1.6609,-1.6614,0,0,0,0,0,-1.6599,-1.6624,-1.661,-1.661,-1.6602,-1.6604,-1.6603,-1.6581,-1.6563,-1.6573,-1.6558,-1.6537,-1.6543,-1.6529,-1.6529,-1.6546,-1.6553,-1.6556,-1.6559,-1.66,-1.6607,-1.6614,0,0,0,0,0,0,-1.6645,-1.6621,-1.6606,-1.6625,-1.6617,-1.6597,-1.6609,-1.659,-1.6587,-1.6583,-1.6555,-1.6552,-1.6566,-1.6557,-1.6542,-1.657,-1.6545,-1.6548,-1.6575,-1.6582,-1.6588,-1.659,-1.6506,0,0,0,0,0,-1.6657,-1.6662,-1.664,-1.6659,-1.6656,-1.6633,-1.6633,-1.6617,-1.6607,-1.6604,-1.659,-1.6581,-1.658,-1.6581,-1.658,-1.6601,-1.6595,-1.6612,-1.6618,-1.6623,-1.6625,-1.6634,-1.664,-1.657,-1.657,-1.657,0,0,-1.6683,-1.667,-1.6675,-1.6668,-1.666,-1.6664,-1.6631,-1.6637,-1.664,-1.6605,-1.6614,-1.6603,-1.6591,-1.6607,-1.6613,-1.66,-1.6643,-1.6626,-1.663,-1.663,-1.6637,-1.6644,-1.665,-1.6572,-1.6572,-1.6571,0,0,-1.6732,-1.6723,-1.6737,-1.6729,-1.6717,-1.6701,-1.6705,-1.6687,-1.6678,-1.6687,-1.666,-1.6663,-1.6663,-1.6655,-1.6651,-1.6695,-1.6674,-1.6695,-1.6726,-1.6734,-1.674,-1.6744,-1.6758,-1.6764,-1.6698,-1.6698,-1.6698,0,-1.6765,-1.6771,-1.6747,-1.6754,-1.6751,-1.6719,-1.6732,-1.6726,-1.6714,-1.6712,-1.6698,-1.6696,-1.6686,-1.6698,-1.6709,-1.6707,-1.6709,-1.6697,-1.6741,-1.6745,-1.6749,-1.6762,-1.6768,-1.67,-1.67,-1.67,-1.67,0,-1.6812,-1.6816,-1.6829,-1.6817,-1.6816,-1.6826,-1.6803,-1.6804,-1.6787,-1.6773,-1.6781,-1.6767,-1.6762,-1.6763,-1.6747,-1.6773,-1.6765,-1.6746,-1.672,-1.6759,-1.6771,-1.6776,-1.6704,-1.6703,-1.6702,-1.6702,0,0,-1.6889,-1.6863,-1.6868,-1.6862,-1.6845,-1.6848,-1.6856,-1.685,-1.6851,-1.6844,-1.6849,-1.6849,-1.6831,-1.6826,-1.6809,-1.6816,-1.6849,-1.6796,-1.6795,-1.6806,-1.6875,-1.6889,-1.6895,-1.6836,-1.6837,-1.6837,-1.6875,0,-1.6934,-1.6947,-1.6924,-1.6942,-1.6945,-1.6914,-1.692,-1.691,-1.6897,-1.6896,-1.6881,-1.6881,-1.6858,-1.6854,-1.686,-1.6844,-1.6863,-1.6841,-1.6839,-1.6839,-1.6843,-1.6901,-1.6916,-1.6953,-1.688,-1.6881,-1.6881,0,-1.6988,-1.6982,-1.7,-1.698,-1.6981,-1.6987,-1.6979,-1.698,-1.6967,-1.6956,-1.695,-1.6929,-1.6934,-1.6909,-1.6915,-1.6901,-1.6899,-1.689,-1.6891,-1.689,-1.6863,-1.69,-1.6964,-1.6969,-1.6889,-1.6888,-1.6887,0,-1.7041,-1.7038,-1.7048,-1.7043,-1.7021,-1.7026,-1.7017,-1.7003,-1.7,-1.6993,-1.6991,-1.6984,-1.6981,-1.6976,-1.6953,-1.6937,-1.6961,-1.6934,-1.6951,-1.6952,-1.6957,-1.6957,-1.7021,-1.6957,-1.6957,-1.6957,-1.6957,0,-1.7092,-1.7104,-1.7071,-1.7077,-1.7089,-1.7063,-1.7075,-1.7062,-1.705,-1.7052,-1.7024,-1.7027,-1.6997,-1.6996,-1.6978,-1.6984,-1.6983,-1.6974,-1.6969,-1.6976,-1.6977,-1.6973,-1.697,-1.6958,-1.6958,-1.6958,-1.6958,0,-1.7154,-1.7133,-1.7141,-1.7119,-1.7113,-1.7123,-1.7103,-1.7107,-1.7091,-1.7094,-1.7093,-1.7068,-1.7065,-1.7042,-1.7034,-1.7021,-1.7034,-1.7025,-1.7039,-1.7035,-1.7053,-1.7051,-1.7116,-1.7122,-1.7056,-1.7056,-1.7057,0,-1.7188,-1.7197,-1.7175,-1.7174,-1.7166,-1.7166,-1.7163,-1.7137,-1.7134,-1.7119,-1.7125,-1.7119,-1.7113,-1.711,-1.709,-1.7083,-1.7072,-1.7095,-1.7071,-1.7077,-1.7071,-1.7071,-1.707,-1.7101,-1.7101,-1.7102,-1.7103,0,-1.7251,-1.7239,-1.7236,-1.7228,-1.7225,-1.7218,-1.7209,-1.721,-1.7181,-1.718,-1.7176,-1.7171,-1.7162,-1.7157,-1.7146,-1.7135,-1.7114,-1.711,-1.7114,-1.7121,-1.7128,-1.7123,-1.7052,-1.7109,-1.7108,-1.7108,-1.7108,-1.7107,-1.7299,-1.7304,-1.7289,-1.7286,-1.7276,-1.7268,-1.727,-1.7254,-1.7251,-1.7241,-1.7225,-1.7224,-1.7208,-1.7192,-1.7182,-1.718,-1.7167,-1.7173,-1.7174,-1.7175,-1.7178,-1.7129,-1.7178,-1.7178,-1.7177,-1.7177,-1.7177,0,-1.7358,-1.7347,-1.7344,-1.7332,-1.7329,-1.7309,-1.7298,-1.7296,-1.7295,-1.7283,-1.7278,-1.7272,-1.7266,-1.7246,-1.7237,-1.7239,-1.7228,-1.7237,-1.7236,-1.7234,-1.7191,-1.7188,-1.7246,-1.7246,-1.7246,-1.7246,-1.7245,-1.7245,-1.7389,-1.7396,-1.7383,-1.7384,-1.7372,-1.737,-1.7365,-1.7357,-1.7347,-1.7342,-1.7337,-1.7324,-1.7307,-1.7297,-1.729,-1.7284,-1.7282,-1.7293,-1.7284,-1.7244,-1.7237,-1.7231,-1.7228,-1.7293,-1.7294,-1.7327,-1.7328,-1.7328]}]]